Powrót do katalogu

STARLINK-31050

AktywnyŁącznośćVLEO
NORAD 58546·PAYLOAD·🇺🇸 United States

Wystrzelony Dec 8, 2023 z Vandenberg Space Force Base

Loading…

Następne Przeloty (najbliższe 24 godziny)

TLE

ŚwieżeSource: CelesTrak SupGP

Epoka: Sep 15, 2026, 02:40 UTC

1 58546C 23192R   26258.11159722 -.00018323  00000+0 -54134-3 0  2582
2 58546  53.1586 259.0635 0001328  89.0625 166.7734 15.34401135    14

Śledź STARLINK-31050 w czasie rzeczywistym z AllMySat

Download on the App Store